OBJECT C, 61229

Orbit data source: Space-Track

You're viewing an Uncataloged Satellite

Recently launched and/or uncataloged satellites may have evolving metadata. Metadata may include but not limited to: Owner, Maufacturer, Bus, Motor, and Mission.

OBJECT C, 61229 is a satellite owned by Wuhan daxue (CN) in SSO that was launched on Tue, 24 Sep 2024 UTC via a JIELONG-3 launch vehicle from the Yellow Sea Launch Area, China (YSLA). Unknown objects in Earth's orbit typically refer to objects detected orbiting the Earth but have not yet been identified or cataloged. These objects could be anything from previously untracked satellites, spent rocket stages, debris from satellite collisions, or even natural meteoroids temporarily captured by Earth's gravity.

Loading next visibility...
OBJECT C details
Identifier
61229, 2024-173C
Orbit
SSO
Last TLE update8 hours ago
Origin
Flag of CNWuhan daxue (CN / PRC)
ManufacturerWuhan daxue
MissionOperational spacecraft
Bus & MotorLUOJIA-4, Unknown motor
Mass60 kg wet, 60 kg dry
Launch date (UTC)
2024-09-24 (3 months ago)
Launch vehicle
JIELONG-3
Launch site
Yellow Sea Launch Area, China (YSLA)
Object typeUnknown
Shape & HBRUnknown
Radar Cross SectionMedium (>0.1 m² and <1 m²)

Expand to show TLE details & history

TLE from 8 hours ago
0 OBJECT C
1 61229U 24173C   24356.16221998  .00024810  00000-0  92264-3 0  9996
2 61229  97.3958  68.2149 0006986 285.2790  74.7677 15.27484206 13422
Epoch: 2024-12-21T03:53Z
Definitive object data (Epoch: 2024-12-21T03:53:35.806Z)
Latitude0.00002°
Longitude-80.40163°
Altitude485.18 km
Speed7.623 km/s
True Right ascension04h 32m 51s
True Declination0° 00' 00"
Sunlit
Object was in full shadow at TLE epoch
Visualization TLE readout
Latitude45.24312°
Longitude107.42779°
Altitude494.363 km
Speed7.62 km/s
Apparent Right ascension20h 14m 32s
Apparent Declination6° 46' 57"
Sunlit
Object is in daylight
Visualization observer readout
Local Sidereal Time11:22:15
Azimuth54.067° ENE
Elevation-26.381°
Doppler factor1
Orbital elements
Apogee altitude485.083 km
Perigee altitude475.5 km
Semi-major axis6,858.428 km
Eccentricity0.0006986
Inclination97.3958°
RAAN68.2149°
Arg. of periapsis285.279°
True anomaly74.84496°
Mean anomaly74.7677°
Eccentric anomaly74.80633°
Mean motion3.82126 °/min
BSTAR0.00092264
Orbital period94.21 mins
Loading maneuver chart data...
Loading historical data...
Loading historical data...
Loading historical data...
Loading historical data...
Loading historical data...
Loading historical data...
Loading historical data...

OBJECT C Visibility forecast

Observer location: undefined°, undefined

Span
Click to sort rows by Start time (UTC) header in descending order
Start Az.
Max El. time (UTC)
Max El. Az.
Max El.
End time (UTC)
End Az.
4 mins2024-12-21 17:03:28.146Z59.474° ENE2024-12-21 17:05:28.146Z99.315° ESE17.06°2024-12-21 17:07:28.146Z135.523° SSE
4 mins2024-12-21 18:37:28.146Z319.193° NNW2024-12-21 18:38:28.146Z293.608° NW22.701°2024-12-21 18:41:28.146Z234.202° WSW
5 mins2024-12-22 05:11:28.146Z176.568° S2024-12-22 05:13:28.146Z276.222° WNW43.894°2024-12-22 05:16:28.146Z343.8° N
|